Change the Weather History Date:

Wednesday, December 5, 2012

  Actual Average (KBDE) Record (KBDE)
Temperature  
Mean Temperature 19 °F -  
Max Temperature 35 °F 28 °F 48 °F (1939)
Min Temperature 3 °F 8 °F -26 °F (1936)
Degree Days  
Heating Degree Days 46    
Moisture  
Dew Point 13 °F    
Average Humidity 72    
Maximum Humidity 92    
Minimum Humidity 55    
Precipitation  
Precipitation 0.00 in - - ()
Sea Level Pressure  
Sea Level Pressure 30.02 in    
Wind  
Wind Speed 5 mph (SE)    
Max Wind Speed 15 mph    
Max Gust Speed 21 mph    
Visibility 10 miles    
Events      
Averages and records for this station are not official NWS values.
T = Trace of Precipitation, MM = Missing Value Source: NWS Daily Summary

Daily Weather History Graph

Daily Weather History Graph

Search for Another Location

Airport or City:

Trip Planner

Search our weather history database for the weather conditions in past years. The results will help you decide how hot, cold, wet, or windy it might be!

Date:

Astronomy

Dec. 05, 2012 Rise Set
Actual Time 7:52 AM CST 4:24 PM CST
Civil Twilight 7:16 AM CST 5:00 PM CST
Nautical Twilight 6:37 AM CST 5:40 PM CST
Astronomical Twilight 5:59 AM CST 6:17 PM CST
Moon 11:39 PM CST (12/5) 11:55 AM CST (12/5)
Length of Visible Light 9h 44m
Length of Day
8h 32m
Waning Gibbous, 59% of the Moon is Illuminated
Dec 5
Waning Gibbous
Dec 6
Last Quarter
Dec 13
New
Dec 19
First Quarter
Dec 28
Full

Hourly Weather History & Observations

Time (CST) Temp. Windchill Dew Point Humidity Pressure Visibility Wind Dir Wind Speed Gust Speed Precip Events Conditions
12:08 AM 3.2 °F - 1.4 °F 92% 30.36 in 10.0 mi Calm Calm - N/A   Clear
12:28 AM 5.0 °F - 3.2 °F 92% 30.35 in 10.0 mi Calm Calm - N/A   Clear
12:49 AM 3.2 °F - 1.4 °F 92% 30.35 in 10.0 mi Calm Calm - N/A   Clear
1:08 AM 3.2 °F - 1.4 °F 92% 30.34 in 10.0 mi Calm Calm - N/A   Clear
1:49 AM 3.2 °F - 1.4 °F 92% 30.34 in 10.0 mi Calm Calm - N/A   Clear
2:08 AM 3.2 °F - 1.4 °F 92% 30.36 in 10.0 mi Calm Calm - N/A   Clear
2:28 AM 3.2 °F -4.2 °F 1.4 °F 92% 30.35 in 10.0 mi SE 3.5 mph - N/A   Clear
2:49 AM 5.0 °F - 3.2 °F 92% 30.34 in 10.0 mi Calm Calm - N/A   Clear
3:08 AM 6.8 °F - 3.2 °F 85% 30.33 in 10.0 mi Calm Calm - N/A   Clear
3:28 AM 6.8 °F -0.1 °F 3.2 °F 85% 30.31 in 10.0 mi East 3.5 mph - N/A   Clear
3:49 AM 6.8 °F -0.1 °F 3.2 °F 85% 30.30 in 10.0 mi ESE 3.5 mph - N/A   Clear
4:08 AM 6.8 °F - 3.2 °F 85% 30.30 in 10.0 mi Calm Calm - N/A   Clear
4:28 AM 6.8 °F - 5.0 °F 92% 30.29 in 10.0 mi Calm Calm - N/A   Clear
4:49 AM 6.8 °F -0.1 °F 5.0 °F 92% 30.28 in 10.0 mi ESE 3.5 mph - N/A   Clear
5:08 AM 6.8 °F -0.1 °F 5.0 °F 92% 30.28 in 10.0 mi East 3.5 mph - N/A   Clear
5:28 AM 8.6 °F 2.0 °F 6.8 °F 92% 30.27 in 10.0 mi East 3.5 mph - N/A   Clear
5:49 AM 8.6 °F - 5.0 °F 85% 30.27 in 10.0 mi Calm Calm - N/A   Clear
6:08 AM 8.6 °F 2.0 °F 5.0 °F 85% 30.26 in 10.0 mi East 3.5 mph - N/A   Clear
6:28 AM 8.6 °F - 6.8 °F 92% 30.27 in 10.0 mi Calm Calm - N/A   Clear
6:49 AM 8.6 °F 2.0 °F 6.8 °F 92% 30.26 in 10.0 mi ESE 3.5 mph - N/A   Clear
8:28 AM 15.8 °F 4.2 °F 12.2 °F 86% 30.21 in 10.0 mi SE 9.2 mph - N/A   Clear
8:49 AM 17.6 °F 5.0 °F 14.0 °F 86% 30.19 in 10.0 mi SE 11.5 mph 18.4 mph N/A   Clear
9:08 AM 17.6 °F 5.0 °F 14.0 °F 86% 30.17 in 10.0 mi SE 11.5 mph 17.3 mph N/A   Clear
9:28 AM 17.6 °F 5.0 °F 14.0 °F 86% 30.16 in 10.0 mi ESE 11.5 mph - N/A   Clear
9:49 AM 19.4 °F 7.9 °F 15.8 °F 86% 30.15 in 10.0 mi ESE 10.4 mph - N/A   Clear
10:08 AM 19.4 °F 7.2 °F 14.0 °F 80% 30.14 in 10.0 mi ESE 11.5 mph 17.3 mph N/A   Clear
10:28 AM 19.4 °F 11.5 °F 14.0 °F 80% 30.14 in 10.0 mi ESE 5.8 mph - N/A   Mostly Cloudy
10:49 AM 21.2 °F 12.6 °F 14.0 °F 74% 30.13 in 10.0 mi ESE 6.9 mph - N/A   Scattered Clouds
11:08 AM 23.0 °F 13.1 °F 14.0 °F 68% 30.11 in 10.0 mi SE 9.2 mph - N/A   Mostly Cloudy
11:28 AM 24.8 °F 14.6 °F 14.0 °F 64% 30.10 in 10.0 mi ESE 10.4 mph 16.1 mph N/A   Scattered Clouds
11:49 AM 26.6 °F 15.7 °F 14.0 °F 59% 30.07 in 10.0 mi ESE 12.7 mph - N/A   Scattered Clouds
12:08 PM 26.6 °F 16.2 °F 14.0 °F 59% 30.05 in 10.0 mi SE 11.5 mph 18.4 mph N/A   Scattered Clouds
12:28 PM 28.4 °F 17.5 °F 14.0 °F 55% 30.03 in 10.0 mi SE 13.8 mph 19.6 mph N/A   Clear
12:49 PM 26.6 °F 15.7 °F 12.2 °F 55% 30.02 in 10.0 mi ESE 12.7 mph 20.7 mph N/A   Clear
1:08 PM 26.6 °F 14.7 °F 12.2 °F 55% 30.00 in 10.0 mi ESE 15.0 mph 18.4 mph N/A   Clear
1:49 PM 26.6 °F 15.7 °F 14.0 °F 59% 29.94 in 10.0 mi ESE 12.7 mph 20.7 mph N/A   Clear
2:08 PM 26.6 °F 16.8 °F 15.8 °F 64% 29.93 in 10.0 mi SE 10.4 mph 17.3 mph N/A   Clear
2:28 PM 26.6 °F 15.7 °F 15.8 °F 64% 29.92 in 10.0 mi ESE 12.7 mph 17.3 mph N/A   Clear
2:49 PM 28.4 °F 18.0 °F 15.8 °F 59% 29.90 in 10.0 mi ESE 12.7 mph 19.6 mph N/A   Clear
3:08 PM 28.4 °F 19.1 °F 15.8 °F 59% 29.88 in 10.0 mi ESE 10.4 mph 16.1 mph N/A   Clear
3:28 PM 28.4 °F 22.2 °F 15.8 °F 59% 29.89 in 10.0 mi SE 5.8 mph - N/A   Clear
3:49 PM 28.4 °F 23.3 °F 15.8 °F 59% 29.88 in 10.0 mi SE 4.6 mph - N/A   Clear
4:08 PM 28.4 °F 21.2 °F 15.8 °F 59% 29.87 in 10.0 mi SE 6.9 mph - N/A   Clear
4:28 PM 28.4 °F 19.7 °F 15.8 °F 59% 29.86 in 10.0 mi SE 9.2 mph 17.3 mph N/A   Clear
4:49 PM 28.4 °F 19.7 °F 15.8 °F 59% 29.84 in 10.0 mi SE 9.2 mph 16.1 mph N/A   Clear
5:08 PM 28.4 °F 19.1 °F 15.8 °F 59% 29.83 in 10.0 mi SE 10.4 mph - N/A   Clear
5:28 PM 28.4 °F 18.5 °F 15.8 °F 59% 29.82 in 10.0 mi SE 11.5 mph - N/A   Clear
5:49 PM 28.4 °F 19.7 °F 17.6 °F 64% 29.82 in 10.0 mi SSE 9.2 mph - N/A   Clear
6:08 PM 28.4 °F 19.1 °F 17.6 °F 64% 29.81 in 10.0 mi SSE 10.4 mph - N/A   Clear
6:28 PM 28.4 °F 20.4 °F 17.6 °F 64% 29.80 in 10.0 mi SSE 8.1 mph 17.3 mph N/A   Clear
6:48 PM 28.4 °F 21.2 °F 17.6 °F 64% 29.79 in 10.0 mi SE 6.9 mph - N/A   Clear
7:08 PM 28.4 °F 20.4 °F 17.6 °F 64% 29.77 in 10.0 mi SE 8.1 mph - N/A   Clear
7:28 PM 28.4 °F 20.4 °F 17.6 °F 64% 29.75 in 10.0 mi SE 8.1 mph - N/A   Clear
7:48 PM 30.2 °F 21.3 °F 17.6 °F 60% 29.74 in 10.0 mi SE 10.4 mph 16.1 mph N/A   Scattered Clouds
8:08 PM 30.2 °F 22.6 °F 19.4 °F 64% 29.73 in 10.0 mi SSE 8.1 mph 16.1 mph N/A   Scattered Clouds
8:29 PM 30.2 °F 23.4 °F 19.4 °F 64% 29.72 in 10.0 mi SSE 6.9 mph 18.4 mph N/A   Scattered Clouds
8:48 PM 30.2 °F 24.3 °F 19.4 °F 64% 29.72 in 10.0 mi SSE 5.8 mph 16.1 mph N/A   Clear
9:08 PM 32.0 °F 24.8 °F 19.4 °F 60% 29.71 in 10.0 mi SSE 8.1 mph - N/A   Clear
9:29 PM 32.0 °F 23.0 °F 19.4 °F 60% 29.69 in 10.0 mi SSE 11.5 mph 18.4 mph N/A   Scattered Clouds
9:48 PM 32.0 °F 24.8 °F 19.4 °F 60% 29.70 in 10.0 mi South 8.1 mph 19.6 mph N/A   Mostly Cloudy
10:08 PM 33.8 °F 29.6 °F 21.2 °F 60% 29.69 in 10.0 mi SSE 4.6 mph - N/A   Overcast
10:29 PM 33.8 °F 25.3 °F 21.2 °F 60% 29.68 in 10.0 mi South 11.5 mph 16.1 mph N/A   Overcast
10:48 PM 33.8 °F 25.8 °F 21.2 °F 60% 29.67 in 10.0 mi South 10.4 mph 19.6 mph N/A   Overcast
11:08 PM 33.8 °F 24.8 °F 21.2 °F 60% 29.66 in 10.0 mi SSE 12.7 mph 19.6 mph N/A   Overcast
11:29 PM 35.6 °F 27.5 °F 21.2 °F 56% 29.65 in 10.0 mi SSE 11.5 mph 19.6 mph N/A   Overcast
11:48 PM 35.6 °F 29.2 °F 23.0 °F 60% 29.65 in 10.0 mi South 8.1 mph 18.4 mph N/A   Overcast